EW8359 Weather Reports


time (UTC)temp
F
wind
direction
speed
knots
gust
knots
rain 1hr
in
rain 24hr
in
rain mn
in
humidity
%
barometer
mb
20260901134621 62 73 0.0 2.6 0.00 0.00 0.00 81 1016.5
20260901133056 61 55 0.0 1.7 0.00 0.00 0.00 81 1016.5
20260901131553 60 58 0.0 0.9 0.00 0.00 0.00 82 1016.5
20260901124601 60 61 0.0 0.9 0.00 0.00 0.00 83 1016.7
20260901123050 60 61 0.0 2.6 0.00 0.00 0.00 85 1016.6
20260901121553 60 22 0.0 2.6 0.00 0.00 0.00 84 1016.7
20260901120058 59 360 0.0 2.6 0.00 0.00 0.00 85 1016.8
20260901114543 58 326 0.0 3.5 0.00 0.00 0.00 88 1016.5
20260901113105 58 274 0.0 1.7 0.00 0.00 0.00 89 1016.4
20260901111536 57 274 0.0 1.7 0.00 0.00 0.00 90 1016.1
20260901110034 56 271 0.0 0.9 0.00 0.00 0.00 90 1016.0
20260901104534 56 261 0.0 0.9 0.00 0.00 0.00 91 1015.9
20260901103033 55 260 0.0 2.6 0.00 0.00 0.00 91 1015.9
20260901101545 55 192 0.0 0.9 0.00 0.00 0.00 91 1015.5
20260901100030 55 194 0.0 0.9 0.00 0.00 0.00 91 1015.2
20260901094529 55 194 0.0 0.9 0.00 0.00 0.00 90 1015.4
20260901093027 54 194 0.0 1.7 0.00 0.00 0.00 90 1015.6
20260901091528 54 190 0.0 0.0 0.00 0.00 0.00 90 1015.5
20260901090028 54 190 0.0 0.9 0.00 0.00 0.00 90 1015.6
20260901084532 54 190 0.0 0.9 0.00 0.00 0.00 90 1015.6
20260901083025 54 190 0.0 0.0 0.00 0.00 0.00 90 1015.5
20260901081521 54 190 0.0 1.7 0.00 0.00 0.00 90 1015.7
20260901080020 54 188 0.0 0.9 0.00 0.00 0.00 90 1015.7
20260901074525 54 188 0.0 0.9 0.00 0.00 0.00 90 1015.7
20260901073018 54 187 0.0 0.9 0.00 0.00 0.00 90 1015.7
20260901071517 54 186 0.0 1.7 0.00 0.00 0.00 90 1016.0
20260901070016 54 186 0.0 0.9 0.00 0.00 0.00 90 1016.0
20260901064518 54 186 0.0 0.9 0.00 0.00 0.00 89 1016.0
20260901063015 54 186 0.0 1.7 0.00 0.00 0.00 90 1015.9
20260901061511 54 186 0.0 0.0 0.00 0.00 0.00 89 1015.8
20260901060009 55 186 0.0 1.7 0.00 0.00 0.00 89 1015.9
20260901054508 55 186 0.0 0.9 0.00 0.00 0.00 89 1015.7
20260901053007 55 186 0.0 0.9 0.00 0.00 0.00 89 1015.7
20260901051505 55 186 0.0 0.9 0.00 0.00 0.00 89 1015.8
20260901050004 56 186 0.0 0.9 0.00 0.00 0.00 89 1016.0
20260901044505 56 186 0.0 0.9 0.00 0.00 0.00 89 1015.9
20260901043003 56 186 0.0 0.9 0.00 0.00 0.00 89 1015.9
20260901041600 56 186 0.0 0.9 0.00 0.00 0.00 89 1015.9
20260901040059 56 186 0.0 0.9 0.00 0.00 0.00 88 1015.7
20260901034605 56 186 0.0 0.9 0.00 0.00 0.00 88 1015.9
20260901033057 56 186 0.0 0.9 0.00 0.00 0.00 87 1015.9
20260901031559 56 186 0.0 0.9 0.00 0.00 0.00 87 1015.8
20260901030056 57 186 0.0 1.7 0.00 0.00 0.00 87 1015.8
20260901024603 57 186 0.0 0.9 0.00 0.00 0.00 87 1015.8
20260901023054 57 186 0.9 1.7 0.00 0.00 0.00 87 1015.8
20260901021616 58 186 0.0 0.9 0.00 0.00 0.00 86 1015.9
20260901020111 59 186 0.0 1.7 0.00 0.00 0.00 85 1015.9
20260901014557 60 186 0.0 1.7 0.00 0.01 0.00 84 1015.8
20260901013104 60 186 0.0 1.7 0.00 0.01 0.00 85 1015.8
20260901011554 60 186 0.0 0.9 0.00 0.01 0.00 84 1015.9
20260901010052 60 186 0.9 2.6 0.00 0.01 0.00 84 1015.8
20260901004552 60 179 0.0 0.9 0.00 0.01 0.00 84 1015.8
20260901003054 61 179 0.0 0.9 0.00 0.01 0.00 83 1015.9
20260901001606 61 179 0.0 0.0 0.00 0.01 0.00 83 1015.7
20260901000056 62 179 0.0 0.9 0.00 0.01 0.00 81 1015.6
20260831234602 63 179 0.0 0.9 0.00 0.01 0.00 80 1015.6
20260831233050 64 179 0.0 1.7 0.00 0.01 0.00 77 1015.6
20260831231548 65 177 0.0 1.7 0.00 0.01 0.00 75 1015.8
20260831230046 66 177 0.0 1.7 0.00 0.01 0.00 73 1016.0
20260831224544 67 177 0.0 1.7 0.00 0.01 0.00 70 1015.9
20260831223045 68 176 0.9 2.6 0.00 0.01 0.00 68 1015.8
20260831221543 69 174 0.0 2.6 0.00 0.01 0.00 64 1015.9
20260831220058 70 163 2.6 6.1 0.00 0.01 0.00 62 1015.8
20260831214546 70 161 0.9 4.3 0.00 0.01 0.00 61 1015.7
20260831213042 71 154 0.9 6.1 0.00 0.01 0.00 59 1015.8
20260831211548 72 177 0.9 5.2 0.00 0.01 0.00 58 1015.7
20260831210048 73 158 0.9 6.1 0.00 0.01 0.00 56 1015.8
20260831204540 74 236 1.7 6.1 0.00 0.01 0.00 53 1015.8
20260831203039 74 44 1.7 5.2 0.00 0.01 0.00 54 1015.9
20260831201546 73 212 0.9 7.0 0.00 0.01 0.00 56 1015.8
20260831200043 73 194 1.7 7.0 0.00 0.01 0.00 56 1015.8
20260831194613 75 150 1.7 7.8 0.00 0.01 0.00 50 1016.0
20260831193041 77 156 0.9 6.1 0.00 0.01 0.00 50 1016.2
20260831191540 78 115 1.7 7.0 0.00 0.01 0.00 41 1016.1
20260831190040 79 277 0.9 3.5 0.00 0.01 0.00 37 1016.2
20260831184554 78 148 0.0 3.5 0.00 0.01 0.00 39 1016.4
20260831183039 78 163 0.9 6.1 0.00 0.01 0.00 41 1016.3
20260831181533 78 178 0.9 3.5 0.00 0.01 0.00 42 1016.5
20260831180034 78 26 1.7 4.3 0.00 0.01 0.00 36 1016.6
20260831174530 77 309 0.0 4.3 0.00 0.01 0.00 39 1016.7
20260831173033 76 144 0.9 4.3 0.00 0.01 0.00 36 1017.1
20260831171527 76 294 0.9 3.5 0.00 0.01 0.00 36 1017.1
20260831170025 75 240 0.0 4.3 0.00 0.01 0.00 37 1017.4
20260831164524 75 300 0.0 4.3 0.00 0.01 0.00 40 1017.4
20260831163024 74 59 1.7 4.3 0.00 0.01 0.00 38 1017.7
20260831161522 74 132 0.9 7.0 0.00 0.01 0.00 42 1017.9
20260831160027 74 127 0.9 3.5 0.00 0.01 0.00 42 1018.0
20260831154519 73 109 0.0 3.5 0.00 0.01 0.00 48 1018.0
20260831153015 72 348 1.7 4.3 0.00 0.01 0.00 45 1018.1
20260831151513 71 79 0.9 8.7 0.00 0.01 0.00 49 1018.2
20260831150015 70 96 0.9 7.8 0.00 0.01 0.00 51 1018.3
20260831144517 70 9 1.7 6.1 0.00 0.01 0.00 52 1018.5
20260831143007 69 5 1.7 4.3 0.00 0.01 0.00 51 1018.7
20260831141503 68 50 1.7 6.1 0.00 0.01 0.00 53 1018.8
20260831140108 67 19 0.9 5.2 0.00 0.01 0.00 59 1018.7